Regional Weather Roundup
Issued by NWS

Home | Current Version | Previous Version | Graphics & Text | Print | Product List | Glossary Off
Versions: 1 2 3 4 5 6 7 8 9 10 11 12 13 14 15 16 17 18 19 20 21 22 23 24 25 26 27 28 29 30 31 32 33 34 35 36 37 38 39 40 41 42 43 44 45 46 47 48 49 50

348
ASUS43 KMKX 232010
RWRWI

WISCONSIN REGIONAL WEATHER ROUNDUP
NATIONAL WEATHER SERVICE MILWAUKEE/SULLIVAN WI
200 PM CST MON JAN 23 2017

NOTE: "FAIR" INDICATES FEW OR NO CLOUDS BELOW 12,000 FEET WITH NO
SIGNIFICANT WEATHER AND/OR OBSTRUCTIONS TO VISIBILITY.

WIZ001-002-006>008-014>016-023>028-232100-
NORTHWEST WISCONSIN

CITY           SKY/WX    TMP DP  RH WIND       PRES   REMARKS
SUPERIOR ARPT  CLOUDY    38  34  85 SW6       29.78R WCI  34
ASHLAND        CLOUDY    37  35  92 CALM      29.76F
HAYWARD        CLOUDY    38  33  82 CALM      29.76F
SIREN          LGT RAIN  35  34  99 W7        29.79S WCI  29
CUMBERLAND     CLOUDY    32  32 100 W7        29.78S WCI  26
RICE LAKE      CLOUDY    35  35 100 W5        29.80R WCI  31
CHETEK         CLOUDY    35  33  93 W6        29.79R WCI  30
LADYSMITH      CLOUDY    36  36  99 W3        29.77F FOG
EAU CLAIRE     CLOUDY    35  33  92 W9        29.79R FOG     WCI  28
MENOMONIE        N/A    N/A N/A N/A MISG        N/A
NEW RICHMOND   CLOUDY    34  34 100 W8        29.81S FOG     WCI  27
OSCEOLA        CLOUDY    35  35 100 W9        29.83F FOG     WCI  28
$$

WIZ003>005-009-010-017-018-232100-
NORTH CENTRAL WISCONSIN

CITY           SKY/WX    TMP DP  RH WIND       PRES   REMARKS
MANITOWISH WTR CLOUDY    33  33 100 CALM      29.73F
ARBOR VITAE    CLOUDY    37  35  94 CALM      29.73F
WOODRUFF       CLOUDY    37  35  94 CALM      29.73F
RHINELANDER    CLOUDY    38  34  85 NW5       29.73F WCI  34
EAGLE RIVER    CLOUDY    36  33  90 CALM      29.72F
LAND O LAKES   CLOUDY    37  34  90 CALM      29.74F
PHILLIPS       CLOUDY    34  34 100 CALM      29.74F FOG
TOMAHAWK       CLOUDY    35  33  89 W3        29.74F
MEDFORD        FOG       33  33  99 NW5       29.74F VSB 1   WCI  29
MERRILL        CLOUDY    37  34  90 NW3         N/A
$$

WIZ029-030-035-036-043>047-232100-
CENTRAL WISCONSIN

CITY           SKY/WX    TMP DP  RH WIND       PRES   REMARKS
WAUSAU         CLOUDY    35  33  92 W6        29.74F WCI  30
MOSINEE        NOT AVBL
MARSHFIELD     FOG       34  33  96 NW6       29.74F VSB 1/4 WCI  29
STEVENS POINT  CLOUDY    35  34  96 NW5       29.75F WCI  31
WAUPACA        CLOUDY    41  35  77 CALM      29.76S
WAUTOMA        CLOUDY    38  35  89 NW6       29.76F WCI  33
WISC RAPIDS    CLOUDY    37  35  92 N3        29.76F
CAMP DOUGLAS   CLOUDY    37  37 100 W8        29.77S WCI  31
$$

WIZ011>013-019>022-031-037>040-048>050-232100-
NORTHEAST WISCONSIN

CITY           SKY/WX    TMP DP  RH WIND       PRES   REMARKS
ANTIGO         CLOUDY    35  32  88 CALM      29.73F
SHAWANO        CLOUDY    40  35  80 CALM      29.75F
OCONTO         CLOUDY    38  34  88 N3        29.75S
STURGEON BAY   FOG       35  35 100 NW7       29.75S VSB 1/4 WCI  29
GREEN BAY      CLOUDY    39  36  89 NW6       29.75F WCI  35
MANITOWOC      CLOUDY    39  37  92 MISG      29.74F
APPLETON       PTSUNNY   37  37 100 VRB5      29.73F WCI  34
CLINTONVILLE   CLOUDY    37  34  87 CALM      29.74F
OSHKOSH        CLOUDY    38  34  85 W6        29.74F WCI  33
$$

WIZ032>034-041-042-053>061-232100-
SOUTHWEST WISCONSIN

CITY           SKY/WX    TMP DP  RH WIND       PRES   REMARKS
LA CROSSE      CLOUDY    39  34  82 CALM      29.81S
SPARTA         CLOUDY    35  34  96 SW6       29.80S WCI  30
VIROQUA        CLOUDY    34  34 100 W6        29.78F WCI  29
BOSCOBEL       CLOUDY    40  33  76 W5        29.81S
PRAIRIE DU CHI CLOUDY    38  33  82 NW5       29.81S WCI  34
PLATTEVILLE    CLOUDY    38  37  98 W6        29.79S WCI  33
$$

WIZ056-057-062-063-064-067-068-232100-
SOUTH CENTRAL WISCONSIN

CITY           SKY/WX    TMP DP  RH WIND       PRES   REMARKS
REEDSBURG      CLOUDY    38  37  96 W8        29.77S WCI  32
BARABOO/DELLS  CLOUDY    37  35  91 NW3       29.76S
LONE ROCK      CLOUDY    41  33  73 W7        29.78F
MINERAL POINT  CLOUDY    39  37  93 W8        29.77S WCI  34
MADISON        CLOUDY    39  35  86 NW8       29.77S WCI  33
MIDDLETON      CLOUDY    39  39 100 NW6       29.77S WCI  35
WATERTOWN      CLOUDY    37  37  97 NW5       29.75S WCI  34
MONROE         CLOUDY    39  36  87 NW7       29.75F WCI  34
JANESVILLE     CLOUDY    43  37  81 N7        29.75F
$$

WIZ051-052-058>065-066-070>072-232100-
SOUTHEAST WISCONSIN

CITY           SKY/WX    TMP DP  RH WIND       PRES   REMARKS
MILWAUKEE      CLOUDY    43  36  76 NW7       29.73F
WAUKESHA       CLOUDY    36  36 100 W7        29.75F FOG     WCI  30
MILWAUKEE/TIMM CLOUDY    41  36  81 NW7       29.75F
RACINE         CLOUDY    42  36  79 NE6       29.75S
KENOSHA        CLOUDY    42  36  79 NW7       29.73F
FOND DU LAC    CLOUDY    39  35  86 NW6       29.75S WCI  35
SHEBOYGAN      CLOUDY    41  36  82 N9        29.74S
WEST BEND      CLOUDY    37  37 100 NW5       29.74F WCI  34
JUNEAU         CLOUDY    36  35  94 NW5       29.75F WCI  32
$$

LSZ147-162-232100-
LAKE SUPERIOR

STATION/POSITION TIME  TEMP    WIND        PRES    WAVE
                       AIR SEA DIR/SP/G            HT/PER
                 (UTC) (F)     (DEG/KT/KT) (MB)    (FT/S)
DEVILS ISLAND    2000   35     240/  4/  5 1008.4F
PORT WING        1940   36     270/  5/  5 1008.1F
SAXON HARBOR     1940   37     360/  2/  3 1007.8F
$$

LMZ867-665-643>646-232100-
LAKE MICHIGAN

STATION/POSITION TIME  TEMP    WIND        PRES    WAVE
                       AIR SEA DIR/SP/G            HT/PER
                 (UTC) (F)     (DEG/KT/KT) (MB)    (FT/S)
NORTHPORT PIER   1940   35     300/  6/  9 1007.1F
SISTER BAY       1935   34     350/  7/  8   N/A
KEWAUNEE LAKESHO 1948   38     310/  3/  7 1006.9F
SHEBOYGAN LAKESH 2000   40     320/  8/  9 1007.2F
PORT WASHINGTON  1940   42     340/  4/  8 1008.1F
KENOSHA   LAKESH 2000   36      40/  6/  7 1007.5
$$

TC  - TEMPERATURE IN CELSIUS
VSB - VISIBILITY IN STATUTE MILES
WCI - WIND CHILL INDEX
HX  - HEAT INDEX





USA.gov is the U.S. government's official web portal to all federal, state and local government web resources and services.